Погода в Васькове

Россия / Смоленская область     54°16′13″N   32°33′32″E
темп.,
°C
ветер,
м/с
пор.,
м/с
влажн.,
%
обл.,
%
осадки,
мм/ч
давл.,
гПа
погр.,
м
18 апреля, вс
вс1800:00+8вюв3489100 0.8 1017293
03:00+9ссв6118676 0.8 1016562
06:00+7св6138274 0.0 1017584
09:00+7св5983100 0.0 1018748
12:00+8в3480100 0.1 1019817
15:00+6св4687100 0.2 1020519
18:00+6всв5108578 0.5 1021662
21:00+5всв499195 0.5 1021409
19 апреля, пн
пн1900:00+5всв369172 0.0 1022330
03:00+3св359395 0.0 1022102
06:00+5св41090100 0.0 1021456
09:00+7св5984100 0.0 1022622
12:00+8всв688086 0.1 1022877
15:00+7св5887100 0.3 1022837
18:00+6всв5889100 0.1 1022963
21:00+6всв5987100 0.2 1022807
20 апреля, вт
вт2000:00+4всв4987100 0.1 10211061
03:00+4св5989100 0.1 1020869
06:00+3всв6994100 0.0 1019735
09:00+3св5897100 0.1 1018570
12:00+3св5897100 0.1 1017460
15:00+4св5996100 0.1 1015418
18:00+4св51096100 0.0 1013445
21:00+3ссв5995100 0.2 1011430
21 апреля, ср
ср2100:00+3с61097100 0.1 1008523
03:00+2ссз61097100 0.5 1005467
06:00+2сз61097100 1.6 1004440
09:00+3зсз61197100 2.2 1004693
12:00+4з71191100 0.2 1005912
15:00+6з61073100 0.4 10071438
18:00+7зюз5975100 0.1 10081120
21:00+5юз3784100 0.3 1010138
22 апреля, чт
чт2200:00+4юз3792100 0.1 1011144
03:00+3юз359334 0.1 101277
06:00+2ююз339434 0.0 101341
09:00+8ююз347741 0.0 1014351
12:00+12ю45595 0.2 10141280
15:00+14ююз575475 1.3 10131659
18:00+12ю4763100 0.5 1013216
21:00+10ююв41075100 0.5 1013218